W7YP Weather Reports


time (UTC)temp
C
wind
direction
speed
KPH
gust
KPH
rain 1hr
cm
rain 24hr
cm
rain mn
cm
humidity
%
barometer
mb
20260902113155 12 300 0.0 0.0 0.00 0.00 0.00 84 1009.8
20260902112908 12 300 0.0 0.0 0.00 0.00 0.00 84 1009.9
20260902112145 12 300 0.0 0.0 0.00 0.00 0.00 84 1010.0
20260902111643 12 300 0.0 0.0 0.00 0.00 0.00 83 1010.1
20260902111400 12 300 0.0 0.0 0.00 0.00 0.00 83 1010.1
20260902110625 12 300 0.0 0.0 0.00 0.00 0.00 83 1010.1
20260902110121 12 300 0.0 0.0 0.00 0.00 0.00 83 1010.1
20260902105838 12 300 0.0 0.0 0.00 0.00 0.00 83 1010.2
20260902105124 12 300 0.0 0.0 0.00 0.00 0.00 83 1010.2
20260902104621 12 300 0.0 0.0 0.00 0.00 0.00 82 1010.3
20260902104116 13 300 0.0 0.0 0.00 0.00 0.00 82 1010.3
20260902103620 13 300 0.0 0.0 0.00 0.00 0.00 82 1010.5
20260902103059 13 300 0.0 0.0 0.00 0.00 0.00 82 1010.5
20260902102557 13 300 0.0 0.0 0.00 0.00 0.00 82 1010.5
20260902102057 13 300 0.0 0.0 0.00 0.00 0.00 82 1010.3
20260902101557 13 300 0.0 0.0 0.00 0.00 0.00 82 1010.3
20260902101317 13 300 0.0 0.0 0.00 0.00 0.00 83 1010.5
20260902100553 13 300 0.0 0.0 0.00 0.00 0.00 83 1010.6
20260902100055 13 300 0.0 0.0 0.00 0.00 0.00 84 1010.6
20260902095552 13 300 0.0 0.0 0.00 0.00 0.00 84 1010.6
20260902095053 13 300 0.0 0.0 0.00 0.00 0.00 84 1010.7
20260902094811 13 300 0.0 0.0 0.00 0.00 0.00 83 1010.7
20260902094043 13 300 0.0 0.0 0.00 0.00 0.00 84 1010.7
20260902093536 13 300 0.0 1.6 0.00 0.00 0.00 84 1010.8
20260902093255 13 300 0.0 1.6 0.00 0.00 0.00 83 1010.8
20260902092519 13 300 0.0 0.0 0.00 0.00 0.00 83 1010.6
20260902092023 13 300 0.0 0.0 0.00 0.00 0.00 83 1010.5
20260902091519 13 300 0.0 0.0 0.00 0.00 0.00 84 1010.7
20260902091027 13 300 0.0 0.0 0.00 0.00 0.00 84 1010.7
20260902090520 13 300 0.0 0.0 0.00 0.00 0.00 83 1010.9
20260902090031 13 300 0.0 0.0 0.00 0.00 0.00 83 1011.0
20260902085510 13 300 0.0 0.0 0.00 0.00 0.00 83 1011.0
20260902085017 13 300 0.0 0.0 0.00 0.00 0.00 85 1010.9
20260902084510 13 300 0.0 0.0 0.00 0.00 0.00 85 1011.0
20260902084239 13 300 0.0 3.2 0.00 0.00 0.00 86 1011.0
20260902083501 13 300 0.0 3.2 0.00 0.00 0.00 85 1010.9
20260902083002 13 300 0.0 0.0 0.00 0.00 0.00 84 1011.0
20260902082500 13 300 0.0 0.0 0.00 0.00 0.00 83 1010.9
20260902081957 13 300 0.0 0.0 0.00 0.00 0.00 84 1010.9
20260902081450 13 300 0.0 0.0 0.00 0.00 0.00 83 1010.9
20260902080952 13 300 0.0 0.0 0.00 0.00 0.00 84 1010.9
20260902080451 14 300 0.0 0.0 0.00 0.00 0.00 84 1010.7
20260902080216 14 300 0.0 0.0 0.00 0.00 0.00 84 1010.9
20260902075453 14 300 0.0 0.0 0.00 0.00 0.00 83 1010.9
20260902074951 14 300 0.0 0.0 0.00 0.00 0.00 83 1011.1
20260902074446 14 300 0.0 0.0 0.00 0.00 0.00 83 1011.1
20260902074208 14 300 0.0 0.0 0.00 0.00 0.00 83 1011.1
20260902073448 14 300 0.0 0.0 0.00 0.00 0.00 83 1011.2
20260902072947 14 300 0.0 0.0 0.00 0.00 0.00 82 1011.2
20260902072706 14 300 0.0 0.0 0.00 0.00 0.00 83 1011.1
20260902071934 14 300 0.0 0.0 0.00 0.00 0.00 82 1011.2
20260902071427 14 300 0.0 0.0 0.00 0.00 0.00 82 1011.2
20260902070930 14 300 0.0 0.0 0.00 0.00 0.00 80 1011.4
20260902070911 14 300 0.0 0.0 0.00 0.00 0.00 80 1011.4
20260902065929 15 300 0.0 0.0 0.00 0.00 0.00 78 1011.2
20260902065654 15 300 0.0 0.0 0.00 0.00 0.00 76 1011.4
20260902065154 15 300 0.0 0.0 0.00 0.00 0.00 75 1011.4
20260902064635 15 300 0.0 0.0 0.00 0.00 0.00 76 1011.2
20260902063920 15 300 0.0 0.0 0.00 0.00 0.00 75 1011.4
20260902063422 15 300 0.0 0.0 0.00 0.00 0.00 76 1011.4
20260902063138 15 300 0.0 0.0 0.00 0.00 0.00 76 1011.4
20260902062419 15 300 0.0 0.0 0.00 0.00 0.00 75 1011.5
20260902061921 16 300 0.0 0.0 0.00 0.00 0.00 73 1011.4
20260902061414 16 300 0.0 0.0 0.00 0.00 0.00 76 1011.4
20260902060915 16 300 0.0 0.0 0.00 0.00 0.00 73 1011.5
20260902060410 16 300 0.0 0.0 0.00 0.00 0.00 72 1011.5
20260902060352 16 300 0.0 0.0 0.00 0.00 0.00 72 1011.6
20260902055845 16 300 0.0 0.0 0.00 0.00 0.00 71 1011.6
20260902054856 17 300 0.0 0.0 0.00 0.00 0.00 69 1011.6
20260902054350 17 300 0.0 1.6 0.00 0.00 0.00 68 1011.6
20260902053848 17 300 0.0 1.6 0.00 0.00 0.00 66 1011.6
20260902053348 17 300 0.0 0.0 0.00 0.00 0.00 64 1011.6
20260902052848 18 300 0.0 0.0 0.00 0.00 0.00 62 1011.7
20260902052341 18 300 0.0 0.0 0.00 0.00 0.00 61 1011.7
20260902052057 18 300 0.0 1.6 0.00 0.00 0.00 61 1011.7
20260902051337 18 300 0.0 1.6 0.00 0.00 0.00 60 1011.8
20260902051100 19 227 0.0 1.6 0.00 0.00 0.00 56 1011.8
20260902050336 19 227 0.0 3.2 0.00 0.00 0.00 55 1011.7
20260902045840 19 225 0.0 11.3 0.00 0.00 0.00 55 1011.8
20260902045322 19 218 0.0 11.3 0.00 0.00 0.00 54 1011.8
20260902044825 20 169 0.0 6.4 0.00 0.00 0.00 59 1011.7
20260902044548 20 159 0.0 12.9 0.00 0.00 0.00 51 1011.7
20260902043821 20 122 0.0 12.9 0.00 0.00 0.00 53 1011.8
20260902043318 20 76 0.0 0.0 0.00 0.00 0.00 52 1011.8
20260902042820 20 76 0.0 1.6 0.00 0.00 0.00 52 1011.8
20260902042319 20 76 0.0 9.7 0.00 0.00 0.00 49 1011.7
20260902041817 20 40 0.0 16.1 0.00 0.00 0.00 52 1011.7
20260902041308 21 320 0.0 16.1 0.00 0.00 0.00 48 1011.6
20260902040806 21 164 0.0 9.7 0.00 0.00 0.00 47 1011.7
20260902040304 21 313 1.6 9.7 0.00 0.00 0.00 47 1011.7
20260902035806 21 338 0.0 22.5 0.00 0.00 0.00 47 1011.7
20260902035520 21 209 1.6 22.5 0.00 0.00 0.00 45 1011.7
20260902034802 21 22 1.6 19.3 0.00 0.00 0.00 46 1011.7
20260902034254 21 323 6.4 19.3 0.00 0.00 0.00 45 1011.6
20260902033756 21 178 6.4 19.3 0.00 0.00 0.00 45 1011.6
20260902033255 21 261 3.2 19.3 0.00 0.00 0.00 46 1011.7
20260902032757 21 5 3.2 11.3 0.00 0.00 0.00 47 1011.5
20260902032255 21 304 0.0 14.5 0.00 0.00 0.00 47 1011.4
20260902031757 21 333 1.6 19.3 0.00 0.00 0.00 46 1011.2
20260902031735 21 130 3.2 19.3 0.00 0.00 0.00 46 1011.1
20260902031015 20 33 3.2 19.3 0.00 0.00 0.00 46 1010.9
20260902030241 20 34 1.6 16.1 0.00 0.00 0.00 48 1010.9
20260902025742 20 283 1.6 16.1 0.00 0.00 0.00 51 1010.8
20260902025243 20 222 1.6 19.3 0.00 0.00 0.00 52 1010.6
20260902024743 20 207 0.0 19.3 0.00 0.00 0.00 51 1010.6
20260902024241 19 121 1.6 14.5 0.00 0.00 0.00 51 1010.5
20260902023738 18 296 1.6 14.5 0.00 0.00 0.00 55 1010.3
20260902023231 18 329 0.0 12.9 0.00 0.00 0.00 58 1010.3
20260902022733 17 28 3.2 17.7 0.00 0.00 0.00 60 1010.1
20260902022227 17 317 1.6 20.9 0.00 0.00 0.00 65 1009.9
20260902021952 16 318 3.2 20.9 0.00 0.00 0.00 65 1009.8
20260902021227 16 345 0.0 6.4 0.00 0.00 0.00 79 1009.7
20260902020729 16 127 0.0 3.2 0.00 0.00 0.00 80 1009.2
20260902020228 16 127 0.0 3.2 0.00 0.00 0.00 78 1009.2
20260902015722 16 127 0.0 3.2 0.00 0.00 0.00 77 1009.2
20260902015218 17 126 0.0 0.0 0.00 0.00 0.00 77 1009.2
20260902014719 17 126 0.0 0.0 0.00 0.00 0.00 75 1009.3
20260902014215 17 126 0.0 0.0 0.00 0.00 0.00 75 1009.2
20260902013920 17 126 0.0 0.0 0.00 0.00 0.00 73 1009.3
20260902013818 17 126 0.0 0.0 0.00 0.00 0.00 74 1009.3
20260902012717 18 126 0.0 0.0 0.00 0.00 0.00 72 1009.2
20260902012214 18 126 0.0 0.0 0.00 0.00 0.00 70 1009.3
20260902011710 18 126 0.0 0.0 0.00 0.00 0.00 68 1009.3
20260902011423 19 126 0.0 0.0 0.00 0.00 0.00 67 1009.3
20260902010931 20 126 0.0 0.0 0.00 0.00 0.00 67 1009.2
20260902010202 20 126 0.0 0.0 0.00 0.00 0.00 67 1009.2
20260902005931 20 126 0.0 0.0 0.00 0.00 0.00 65 1009.2
20260902005154 21 126 0.0 0.0 0.00 0.00 0.00 63 1009.3
20260902004655 21 126 0.0 0.0 0.00 0.00 0.00 62 1009.2
20260902004354 22 126 0.0 0.0 0.00 0.00 0.00 64 1009.3
20260902003624 22 126 0.0 0.0 0.00 0.00 0.00 63 1009.2
20260902003124 22 126 0.0 0.0 0.00 0.00 0.00 61 1009.2
20260902002627 23 126 0.0 0.0 0.00 0.00 0.00 60 1009.2
20260902002342 23 126 0.0 0.0 0.00 0.00 0.00 59 1009.3
20260902001610 23 126 0.0 0.0 0.00 0.00 0.00 60 1009.5
20260902001109 23 126 0.0 0.0 0.00 0.00 0.00 62 1009.5
20260902000610 23 126 0.0 0.0 0.00 0.00 0.00 62 1009.6
20260902000110 24 126 0.0 0.0 0.00 0.00 0.00 63 1009.7
20260901235610 24 126 0.0 0.0 0.00 0.00 0.00 66 1009.7
20260901235327 24 126 0.0 0.0 0.00 0.00 0.00 65 1009.7
20260901234821 24 126 0.0 0.0 0.00 0.00 0.00 63 1009.8
20260901234050 24 126 0.0 0.0 0.00 0.00 0.00 61 1009.9
20260901233541 25 126 0.0 0.0 0.00 0.00 0.00 62 1009.7
20260901233040 25 126 0.0 1.6 0.00 0.00 0.00 62 1009.7
20260901232801 25 126 0.0 1.6 0.00 0.00 0.00 60 1009.8
20260901232042 25 126 0.0 0.0 0.00 0.00 0.00 46 1009.8
20260901231541 25 126 0.0 0.0 0.00 0.00 0.00 62 1009.9
20260901231036 25 126 0.0 0.0 0.00 0.00 0.00 62 1009.8
20260901230534 25 126 0.0 0.0 0.00 0.00 0.00 64 1009.9
20260901230032 25 126 0.0 0.0 0.00 0.00 0.00 60 1009.9
20260901225531 25 126 0.0 0.0 0.00 0.00 0.00 62 1010.0
20260901225022 25 126 0.0 0.0 0.00 0.00 0.00 61 1010.1
20260901224745 25 126 0.0 0.0 0.00 0.00 0.00 60 1010.1
20260901224012 25 126 0.0 0.0 0.00 0.00 0.00 62 1010.2
20260901223513 26 126 0.0 0.0 0.00 0.00 0.00 60 1010.3
20260901223013 26 126 0.0 0.0 0.00 0.00 0.00 58 1010.3
20260901222513 26 126 0.0 0.0 0.00 0.00 0.00 58 1010.3
20260901222014 26 126 0.0 0.0 0.00 0.00 0.00 52 1010.3
20260901221513 26 126 0.0 0.0 0.00 0.00 0.00 49 1010.5
20260901221233 26 126 0.0 0.0 0.00 0.00 0.00 50 1010.5
20260901220509 26 126 0.0 0.0 0.00 0.00 0.00 49 1010.6
20260901220009 26 126 0.0 0.0 0.00 0.00 0.00 52 1010.6
20260901215509 26 126 0.0 0.0 0.00 0.00 0.00 46 1010.6
20260901215004 26 126 0.0 0.0 0.00 0.00 0.00 44 1010.7
20260901214733 26 126 0.0 1.6 0.00 0.00 0.00 41 1010.8
20260901214002 26 126 0.0 1.6 0.00 0.00 0.00 35 1010.8
20260901213500 26 126 0.0 0.0 0.00 0.00 0.00 42 1010.9
20260901213000 26 126 0.0 0.0 0.00 0.00 0.00 40 1011.0
20260901212500 26 126 0.0 6.4 0.00 0.00 0.00 40 1011.0
20260901212000 26 126 1.6 6.4 0.00 0.00 0.00 41 1011.1
20260901211712 26 167 0.0 0.0 0.00 0.00 0.00 41 1011.2
20260901210946 26 167 0.0 1.6 0.00 0.00 0.00 42 1011.2
20260901210703 26 167 0.0 1.6 0.00 0.00 0.00 42 1011.4
20260901205946 25 167 0.0 1.6 0.00 0.00 0.00 46 1011.5
20260901205445 25 167 0.0 1.6 0.00 0.00 0.00 42 1011.5
20260901204946 25 167 0.0 6.4 0.00 0.00 0.00 43 1011.6
20260901204444 25 167 1.6 6.4 0.00 0.00 0.00 43 1011.7
20260901203934 25 141 0.0 1.6 0.00 0.00 0.00 42 1011.7
20260901203424 25 165 0.0 6.4 0.00 0.00 0.00 45 1011.8
20260901202919 25 165 0.0 6.4 0.00 0.00 0.00 46 1011.8
20260901202417 24 272 0.0 1.6 0.00 0.00 0.00 44 1011.9
20260901201917 24 275 0.0 0.0 0.00 0.00 0.00 46 1011.9
20260901201417 23 275 0.0 1.6 0.00 0.00 0.00 49 1012.0
20260901200917 23 275 0.0 4.8 0.00 0.00 0.00 50 1012.0
20260901200417 23 275 1.6 4.8 0.00 0.00 0.00 49 1012.1
20260901195913 23 142 0.0 4.8 0.00 0.00 0.00 51 1012.2
20260901195413 23 142 0.0 4.8 0.00 0.00 0.00 48 1012.4
20260901194907 23 142 0.0 1.6 0.00 0.00 0.00 48 1012.4
20260901194408 23 142 0.0 3.2 0.00 0.00 0.00 49 1012.5
20260901194131 22 143 0.0 3.2 0.00 0.00 0.00 48 1012.5
20260901193405 22 143 0.0 1.6 0.00 0.00 0.00 49 1012.6
20260901193122 22 142 0.0 1.6 0.00 0.00 0.00 48 1012.6
20260901192403 22 143 0.0 4.8 0.00 0.00 0.00 51 1012.8
20260901191859 22 143 1.6 4.8 0.00 0.00 0.00 49 1012.9
20260901191343 22 144 0.0 3.2 0.00 0.00 0.00 51 1012.9
20260901190838 21 142 0.0 4.8 0.00 0.00 0.00 53 1013.0
20260901190333 21 142 0.0 4.8 0.00 0.00 0.00 50 1013.1
20260901185833 21 125 0.0 1.6 0.00 0.00 0.00 52 1013.4
20260901185551 21 125 0.0 1.6 0.00 0.00 0.00 52 1013.5
20260901184829 21 125 0.0 6.4 0.00 0.00 0.00 53 1013.5
20260901184325 20 125 0.0 6.4 0.00 0.00 0.00 53 1013.6
20260901183824 20 123 0.0 1.6 0.00 0.00 0.00 56 1013.7
20260901183325 20 124 0.0 1.6 0.00 0.00 0.00 53 1013.8
20260901182819 20 124 0.0 1.6 0.00 0.00 0.00 54 1013.8
20260901182305 20 124 0.0 4.8 0.00 0.00 0.00 55 1013.9
20260901181805 19 124 0.0 4.8 0.00 0.00 0.00 55 1014.0
20260901181305 19 126 0.0 3.2 0.00 0.00 0.00 55 1014.1
20260901180803 19 129 0.0 3.2 0.00 0.00 0.00 57 1014.1
20260901180527 18 111 0.0 3.2 0.00 0.00 0.00 58 1014.3
20260901175756 18 110 0.0 4.8 0.00 0.00 0.00 57 1014.4
20260901175256 18 111 1.6 4.8 0.00 0.00 0.00 58 1014.4
20260901174756 18 111 0.0 3.2 0.00 0.00 0.00 60 1014.4
20260901174256 17 105 0.0 0.0 0.00 0.00 0.00 63 1014.5
20260901173757 17 105 0.0 1.6 0.00 0.00 0.00 60 1014.5
20260901173252 17 105 0.0 1.6 0.00 0.00 0.00 60 1014.5
20260901173247 17 102 0.0 4.8 0.00 0.00 0.00 62 1014.6
20260901172254 16 102 1.6 4.8 0.00 0.00 0.00 60 1014.7
20260901172009 16 145 0.0 3.2 0.00 0.00 0.00 64 1014.6
20260901171252 16 144 0.0 3.2 0.00 0.00 0.00 64 1014.7
20260901170747 16 157 0.0 4.8 0.00 0.00 0.00 63 1014.7
20260901170509 16 109 0.0 4.8 0.00 0.00 0.00 66 1014.8
20260901165742 15 109 1.6 4.8 0.00 0.00 0.00 64 1014.8
20260901165237 15 108 0.0 3.2 0.00 0.00 0.00 68 1014.9
20260901164739 15 106 0.0 1.6 0.00 0.00 0.00 68 1014.8
20260901164239 15 106 0.0 3.2 0.00 0.00 0.00 74 1014.8
20260901163738 14 106 0.0 3.2 0.00 0.00 0.00 72 1014.8
20260901163239 14 89 0.0 3.2 0.00 0.00 0.00 74 1014.9
20260901162736 14 88 0.0 3.2 0.00 0.00 0.00 78 1014.9
20260901162229 13 82 0.0 4.8 0.00 0.00 0.00 78 1014.9
20260901161952 13 78 0.0 4.8 0.00 0.00 0.00 78 1015.0
20260901161224 12 76 0.0 4.8 0.00 0.00 0.00 81 1015.1
20260901160724 12 76 0.0 4.8 0.00 0.00 0.00 81 1015.3
20260901160227 12 60 0.0 0.0 0.00 0.00 0.00 84 1015.3
20260901155949 11 60 0.0 3.2 0.00 0.00 0.00 87 1015.4
20260901155212 11 60 0.0 3.2 0.00 0.00 0.00 87 1015.4
20260901154700 11 59 0.0 0.0 0.00 0.00 0.00 89 1015.5
20260901154159 10 59 0.0 0.0 0.00 0.00 0.00 91 1015.5
20260901154136 10 59 0.0 1.6 0.00 0.00 0.00 93 1015.5
20260901153200 10 59 0.0 1.6 0.00 0.00 0.00 95 1015.6
20260901152700 9 59 0.0 3.2 0.00 0.00 0.00 97 1015.6
20260901152155 9 59 0.0 3.2 0.00 0.00 0.00 97 1015.6
20260901151915 9 26 0.0 3.2 0.00 0.00 0.00 97 1015.6
20260901151146 8 26 0.0 1.6 0.00 0.00 0.00 97 1015.6
20260901150641 8 26 0.0 0.0 0.00 0.00 0.00 97 1015.6
20260901150141 8 26 0.0 1.6 0.00 0.00 0.00 97 1015.6
20260901145641 8 26 0.0 1.6 0.00 0.00 0.00 97 1015.7
20260901145141 7 25 0.0 0.0 0.00 0.00 0.00 97 1015.7
20260901144639 7 25 0.0 0.0 0.00 0.00 0.00 97 1015.7
20260901144131 7 25 0.0 0.0 0.00 0.00 0.00 97 1015.7
20260901143632 7 25 0.0 0.0 0.00 0.00 0.00 97 1015.7
20260901143134 7 25 0.0 0.0 0.00 0.00 0.00 97 1015.7
20260901142622 7 25 0.0 0.0 0.00 0.00 0.00 97 1015.6
20260901142340 7 25 0.0 0.0 0.00 0.00 0.00 97 1015.7
20260901141612 7 25 0.0 0.0 0.00 0.00 0.00 96 1015.5
20260901141113 6 25 0.0 0.0 0.00 0.00 0.00 96 1015.6
20260901140608 6 25 0.0 0.0 0.00 0.00 0.00 96 1015.6
20260901140325 6 25 0.0 0.0 0.00 0.00 0.00 96 1015.6
20260901135828 6 25 0.0 0.0 0.00 0.00 0.00 96 1015.6
20260901135058 6 25 0.0 0.0 0.00 0.00 0.00 96 1015.6
20260901134554 6 25 0.0 0.0 0.00 0.00 0.00 96 1015.6
20260901134053 6 25 0.0 0.0 0.00 0.00 0.00 96 1015.6
20260901133554 6 25 0.0 0.0 0.00 0.00 0.00 96 1015.6
20260901133049 6 25 0.0 0.0 0.00 0.00 0.00 96 1015.4
20260901132548 6 25 0.0 0.0 0.00 0.00 0.00 96 1015.5
20260901132048 6 25 0.0 0.0 0.00 0.00 0.00 96 1015.4
20260901131549 6 25 0.0 0.0 0.00 0.00 0.00 96 1015.3
20260901131045 6 25 0.0 0.0 0.00 0.00 0.00 96 1015.4
20260901130539 6 25 0.0 0.0 0.00 0.00 0.00 96 1015.4
20260901130258 6 25 0.0 0.0 0.00 0.00 0.00 96 1015.3
20260901125800 6 25 0.0 0.0 0.00 0.00 0.00 96 1015.3
20260901125035 6 25 0.0 0.0 0.00 0.00 0.00 96 1015.3
20260901124530 6 25 0.0 0.0 0.00 0.00 0.00 96 1015.3
20260901124249 6 25 0.0 0.0 0.00 0.00 0.00 96 1015.3
20260901123520 6 25 0.0 0.0 0.00 0.00 0.00 96 1015.3
20260901123010 6 25 0.0 0.0 0.00 0.00 0.00 96 1015.3
20260901122505 6 25 0.0 0.0 0.00 0.00 0.00 95 1015.3
20260901122001 6 25 0.0 0.0 0.00 0.00 0.00 95 1015.3
20260901121716 6 25 0.0 0.0 0.00 0.00 0.00 95 1015.3
20260901120956 6 25 0.0 0.0 0.00 0.00 0.00 95 1015.4
20260901120451 6 25 0.0 0.0 0.00 0.00 0.00 96 1015.3
20260901115946 6 25 0.0 0.0 0.00 0.00 0.00 96 1015.4
20260901115702 6 25 0.0 0.0 0.00 0.00 0.00 96 1015.3
20260901114946 6 25 0.0 0.0 0.00 0.00 0.00 95 1015.3
20260901114446 6 25 0.0 0.0 0.00 0.00 0.00 95 1015.3
20260901113941 6 25 0.0 0.0 0.00 0.00 0.00 95 1015.3